Back to catalog

STARLINK-34300

AliveCommunicationsVLEO
NORAD 64218·PAYLOAD·🇺🇸 United States

Launched May 31, 2025 from Vandenberg Space Force Base

Loading…

Next Passes (next 24 hours)

TLE

FreshSource: CelesTrak SupGP

Epoch: Sep 14, 2026, 15:37 UTC

1 64218C 25117R   26257.65118056 -.00027443  00000+0 -81108-3 0  2570
2 64218  53.1572 240.8058 0001382  90.2244 208.6805 15.34394139    10

Track STARLINK-34300 in real time with AllMySat

Download on the App Store